TimeCST,TemperatureF,Dew PointF,Humidity,Sea Level PressureIn,VisibilityMPH,Wind Direction,Wind SpeedMPH,Gust SpeedMPH,PrecipitationIn,Events,Conditions,WindDirDegrees,DateUTC
12:53 AM,42.1,30.0,62,30.18,10.0,NNW,6.9,-,N/A,,Clear,340,2012-11-20 06:53:00
1:53 AM,39.9,28.9,65,30.17,10.0,NNW,8.1,-,N/A,,Clear,330,2012-11-20 07:53:00
2:53 AM,34.0,27.0,75,30.19,10.0,Calm,Calm,-,N/A,,Clear,0,2012-11-20 08:53:00
3:53 AM,36.0,28.0,73,30.19,10.0,NW,3.5,-,N/A,,Clear,310,2012-11-20 09:53:00
4:53 AM,36.0,28.0,73,30.21,10.0,NW,4.6,-,N/A,,Clear,310,2012-11-20 10:53:00
5:53 AM,36.0,28.9,76,30.23,10.0,NNW,4.6,-,N/A,,Clear,340,2012-11-20 11:53:00
6:53 AM,35.1,28.0,76,30.25,10.0,NNW,4.6,-,N/A,,Clear,330,2012-11-20 12:53:00
7:53 AM,33.1,28.0,82,30.27,10.0,WNW,3.5,-,N/A,,Clear,300,2012-11-20 13:53:00
8:53 AM,39.0,30.0,70,30.27,10.0,WSW,3.5,-,N/A,,Clear,240,2012-11-20 14:53:00
9:53 AM,48.0,33.1,56,30.26,10.0,SW,4.6,-,N/A,,Clear,230,2012-11-20 15:53:00
10:53 AM,55.9,34.0,44,30.26,10.0,Calm,Calm,-,N/A,,Clear,0,2012-11-20 16:53:00
11:53 AM,61.0,34.0,36,30.23,10.0,South,5.8,-,N/A,,Clear,170,2012-11-20 17:53:00
12:53 PM,66.0,35.1,32,30.20,10.0,SSW,8.1,-,N/A,,Clear,210,2012-11-20 18:53:00
1:53 PM,70.0,34.0,27,30.18,10.0,SSW,9.2,-,N/A,,Clear,210,2012-11-20 19:53:00
2:53 PM,71.1,33.1,25,30.16,10.0,South,11.5,-,N/A,,Clear,190,2012-11-20 20:53:00
3:53 PM,70.0,32.0,25,30.15,10.0,South,10.4,-,N/A,,Clear,190,2012-11-20 21:53:00
4:53 PM,64.0,34.0,33,30.15,10.0,South,9.2,-,N/A,,Clear,170,2012-11-20 22:53:00
5:53 PM,55.0,35.1,47,30.16,10.0,SSE,11.5,-,N/A,,Clear,160,2012-11-20 23:53:00
6:53 PM,53.1,35.1,50,30.17,10.0,SSE,12.7,-,N/A,,Clear,160,2012-11-21 00:53:00
7:53 PM,50.0,36.0,59,30.18,10.0,South,11.5,-,N/A,,Clear,170,2012-11-21 01:53:00
8:53 PM,51.1,36.0,56,30.17,10.0,South,15.0,-,N/A,,Clear,180,2012-11-21 02:53:00
9:53 PM,50.0,35.1,57,30.16,10.0,South,13.8,-,N/A,,Clear,180,2012-11-21 03:53:00
10:53 PM,50.0,35.1,57,30.14,10.0,South,12.7,-,N/A,,Clear,180,2012-11-21 04:53:00
11:53 PM,48.9,34.0,56,30.14,10.0,South,12.7,-,N/A,,Clear,190,2012-11-21 05:53:00